Overview Statistics Trail Chart Weather Telemetry Raw packets
 

This is the latest recevied weather packets stored in our database for station/object W4MLN-3. If no packets are shown the sender has not sent any weather packets the latest 10 day(s).

<< 78 79 80 81 82 83 84 >>
Time Temp. Humidity Pressure Rain* Wind** Luminosity Snow
1787927703 25° C 69% 1021 hPa 0 mm - - -
1787927403 24.44° C 71% 1021 hPa 0 mm - - -
1787927103 24.44° C 73% 1021 hPa 0 mm - - -
1787926803 24.44° C 72% 1021.1 hPa 0 mm - - -
1787926503 24.44° C 71% 1021.1 hPa 0 mm - - -
1787926246 24.44° C 71% 1021 hPa 0 mm - - -
1787925924 24.44° C 73% 1021 hPa 0 mm - - -
1787925603 23.89° C 77% 1021 hPa 0 mm - - -
1787925303 23.89° C 77% 1021 hPa 0 mm - - -
1787925003 23.33° C 78% 1021 hPa 0 mm - - -
1787924703 22.78° C 80% 1020.9 hPa 0 mm - - -
1787924403 22.22° C 81% 1020.9 hPa 0 mm - - -
1787924124 22.22° C 83% 1020.9 hPa 0 mm - - -
1787923803 21.67° C 87% 1020.7 hPa 0 mm - - -
1787923503 21.11° C 90% 1020.7 hPa 0 mm - - -
1787923203 20.56° C 91% 1020.8 hPa 0 mm - - -
1787922903 20.56° C 95% 1020.7 hPa 0 mm - - -
1787922603 20° C 97% 1020.6 hPa 0 mm - - -
1787922303 20° C 97% 1020.6 hPa 0 mm - - -
1787922003 19.44° C 97% 1020.5 hPa 0 mm - - -
1787921703 19.44° C 97% 1020.5 hPa 0 mm - - -
1787921403 19.44° C 98% 1020.5 hPa 0 mm - - -
1787921103 18.89° C 98% 1020.4 hPa 0 mm - - -
1787920803 18.89° C 97% 1020.5 hPa 0 mm - - -
1787920503 18.33° C 97% 1020.5 hPa 0 mm - - -

* Rain latest hour (hover to see other rain measurements)
** Current wind speed in m/s (hover to see current wind gust speed)